Location: Albert Place
(40.7505°N, 111.9230°W)
Time: 19:10:21
(UTC+00:00)

Cosmos 1570 Rocket - Pass Details

Date: 23 March 2026
Orbit: 759 x 783 km, 74.1° (Epoch: 18 April)

Event Time Altitude Azimuth Distance (km) Brightness Sun altitude
Rises 04:46:28 0° 343° (NNW) 3,239 7.9 -33.5°
Reaches altitude 10° 04:48:53 10° 347° (NNW) 2,312 7.0 -33.8°
Enters shadow 04:51:12 26° 355° (N) 1,471 5.7 -34.2°
